Regional Weather Roundup
Issued by NWS

Home | Current Version | Previous Version | Text Only | Print | Product List | Glossary Off
Versions: 1 2 3 4 5 6 7 8 9 10 11 12 13 14 15 16 17 18 19 20 21 22 23 24 25 26 27 28 29 30 31 32 33 34 35 36 37 38 39 40 41 42 43 44 45 46 47 48 49 50

000
ASUS43 KLOT 010208
RWRIL

ILLINOIS REGIONAL WEATHER ROUNDUP
NATIONAL WEATHER SERVICE CHICAGO/ROMEOVILLE IL
900 PM CDT WED AUG 31 2016

NOTE: "FAIR" INDICATES FEW OR NO CLOUDS BELOW 12,000 FEET WITH NO
SIGNIFICANT WEATHER AND/OR OBSTRUCTIONS TO VISIBILITY.

* THESE STATIONS ARE NOT UNDER NWS QUALITY CONTROL. THEY ALSO MAY NOT
  REPORT WEATHER SUCH AS PRECIPITATION OR FOG.

ILZ001-002-007-009-015-016-024-010300-
NORTHWEST ILLINOIS

CITY           SKY/WX    TMP DP  RH WIND       PRES   REMARKS
MOLINE         CLEAR     70  57  63 N5        30.10R
STERLING*      CLEAR     68  59  73 NE6       30.11R
SAVANNA*       CLEAR     65  59  81 N5        30.11S
$$

ILZ003-004-008-010-011-017-018-010300-
NORTH CENTRAL ILLINOIS

CITY           SKY/WX    TMP DP  RH WIND       PRES   REMARKS
ROCKFORD       CLEAR     68  55  63 E7        30.12R
FREEPORT*      CLEAR     62  57  84 CALM      30.14R
ROCHELLE*      CLEAR     63  58  82 NE7       30.12R
DE KALB*       CLEAR     62  58  87 NE5       30.12S
$$

ILZ005-006-012>014-019>023-010300-
NORTHEAST ILLINOIS

CITY           SKY/WX    TMP DP  RH WIND       PRES   REMARKS
CHICAGO-OHARE  PTCLDY    67  55  65 N8        30.09R
CHICAGO-MIDWAY CLEAR     72  53  51 N16       30.08R
AURORA         CLEAR     65  55  70 NE7       30.11R
LANSING*       CLEAR     69  59  70 N8        30.08S
JOLIET*        CLEAR     68  56  65 N3        30.09S
WAUKEGAN       CLEAR     64  55  72 N3        30.10S
DUPAGE AIRPORT CLEAR     63  53  70 N7        30.10R
KANKAKEE*      CLOUDY    65  57  77 CALM      30.09S
WHEELING       CLEAR     66  55  67 N6        30.11R
MORRIS*        CLEAR     64  56  77 CALM      30.09R
ROMEOVILLE*    CLEAR     65  57  75 N7        30.09S
NORTHERLY ISL    N/A     70  54  56 N14         N/A
$$

LMZ740>746-010300-
SOUTHERN LAKE MICHIGAN

STATION/POSITION SKY/WX   TEMP    WIND        PRES    VSBY  WAVE
                          AIR SEA DIR/SP/G                  HT/PER
                          (F)     (DEG/KT/KT) (MB)    (MI)  (FT/S)
SOUTHERN BUOY              72 74   30/ 19/ 23 1017.9R         6/ 7
WILMETTE HARBOR            72 72   50/ 17/ 21   N/A           7/ 7
HARRISON CRIB              73      10/ 23/ 27   N/A
BURNHAM HARBOR             70     350/ 12/ 18   N/A
CALUMET HARBOR             71                 1018.0
BURNS HARBOR               71      20/ 16/ 22 1018.3S
MICHIGAN CITY              70     350/ 21/ 24   N/A
MICHIGAN CITY 6N           70 61   10/ 17/ 23   N/A           8/ 7
ST. JOSEPH                 66 58  360/ 14/ 19 1017.8R         7/ 6
$$

ILZ025>027-034>036-040-047-049-050-058-095>099-010300-
WEST-CENTRAL ILLINOIS

CITY           SKY/WX    TMP DP  RH WIND       PRES   REMARKS
QUINCY         CLEAR     69  65  86 N7        30.08R
GALESBURG*     CLEAR     63  61  92 N5        30.11R
MACOMB*        CLEAR     66  64  91 N5        30.12R
JACKSONVILLE*  MOCLDY    70  66  88 N6        30.07R
PITTSFIELD*    MOCLDY    72  66  83 N7        30.08S
$$

ILZ028>032-037-038-041>044-048-051>054-059>061-010300-
CENTRAL ILLINOIS

CITY           SKY/WX    TMP DP  RH WIND       PRES   REMARKS
PONTIAC        CLOUDY    65  60  86 NE5       30.10R
BLOOMINGTON    PTCLDY    67  59  75 NE9       30.10R
DECATUR        MOCLDY    71  66  84 NE8       30.06R
PEORIA         PTCLDY    70  63  78 N5        30.08R
LACON*         CLEAR     66  60  81 CALM      30.08R
LINCOLN*       MOCLDY    70  66  88 N5        30.07R
SPRINGFIELD    CLOUDY    73  66  78 N9        30.06R
TAYLORVILLE    CLEAR     69  68  95 N6        30.05R
$$

ILZ033-039-045-046-055>057-062-063-010300-
EAST-CENTRAL ILLINOIS

CITY           SKY/WX    TMP DP  RH WIND       PRES   REMARKS
CHAMPAIGN      PTCLDY    69  58  67 NE10      30.07R
RANTOUL*       PTCLDY    69  62  78 NE10      30.08R
MATTOON        PTCLDY    69  64  84 NE7       30.04R
PARIS*         CLOUDY    68  64  86 CALM      30.05S
$$

ILZ079-100>102-010300-
SOUTHWEST ILLINOIS

CITY           SKY/WX    TMP DP  RH WIND       PRES   REMARKS
ALTON          CLOUDY    72  70  94 NW6       30.04R
BELLEVILLE     PTCLDY    75  73  94 NW6       30.01R
CAHOKIA*       PTCLDY    75  68  78 CALM      30.03R
SPARTA*        PTCLDY    72  71  97 CALM      30.03R
$$

ILZ064>066-069>071-074>076-080>082-084>086-088>090-092>094-010300-
SOUTH-CENTRAL ILLINOIS

CITY           SKY/WX    TMP DP  RH WIND       PRES   REMARKS
CARBONDALE     CLOUDY    72  69  90 CALM      30.01R
CAIRO*         PTCLDY    74  70  89 N3        30.00R
EFFINGHAM*     MOCLDY    73  68  84 N3        30.04R
MARION         CLOUDY    73  72  94 CALM      30.01R
MT. VERNON     CLOUDY    73  68  83 CALM      30.01S
CENTRALIA*     CLOUDY    74  74 100 NW3       30.00S FOG
SALEM*         MOCLDY    74  72  94 CALM      30.01R FOG
METROPOLIS*    CLEAR     75  71  88 CALM      29.99R
$$

ILZ067-068-072-073-078-083-087-091-010300-
SOUTHEAST ILLINOIS

CITY           SKY/WX    TMP DP  RH WIND       PRES   REMARKS
LAWRENCEVILLE  LGT RAIN  76  73  91 N6        29.99R
FLORA*         CLOUDY    74  72  91 NW6       30.01R
FAIRFIELD*       N/A     73  73  98 CALM      29.99S
HARRISBURG*    CLEAR     73  72  96 CALM      29.99S
ROBINSON*      CLOUDY    73  69  86 N9        30.01R
CARMI*         CLOUDY    73  72  99 NW5       29.98R
$$

ABBREVIATIONS USED IN REMARKS
   TC - TEMPERATURE IN CELSIUS
  WCI - WIND CHILL INDEX
   HX - HEAT INDEX
  VSB - VISIBILITY
$$





USA.gov is the U.S. government's official web portal to all federal, state and local government web resources and services.